Location: Henham
(51.9333°N, 0.2500°E)
Time: 22:02:19
(UTC+00:00)

H-2A R/B - Pass Details

Date: 23 October 2019
Orbit: 734 x 837 km, 98.3° (Epoch: 17 November)

Event Time Altitude Azimuth Distance (km) Brightness Sun altitude
Exits shadow 19:21:20 60° 83° (E) 951 2.1 -24.1°
Maximum altitude 19:21:35 61° 69° (ENE) 945 2.1 -24.1°
Drops below altitude 10° 19:26:58 10° 351° (N) 2,462 4.9 -24.9°
Sets 19:29:22 0° 348° (NNW) 3,402 5.7 -25.3°
